W2JGA Weather Reports


Display with metric or nautical units.
time (UTC)temp
F
wind
direction
speed
MPH
gust
MPH
rain 1hr
in
rain 24hr
in
rain mn
in
humidity
%
barometer
mb
20260506043654 66 107 2.0 3.0 0.00 0.16 0.16 52 1016.1
20260506043152 66 31 6.0 7.0 0.00 0.16 0.16 52 1016.1
20260506042651 66 89 2.0 2.0 0.00 0.16 0.16 53 1016.1
20260506042149 66 174 3.0 3.0 0.00 0.16 0.16 52 1016.1
20260506041647 66 192 3.0 5.0 0.00 0.16 0.16 52 1015.8
20260506041143 66 195 5.0 7.0 0.00 0.16 0.16 52 1015.4
20260506040641 66 202 6.0 7.0 0.00 0.16 0.16 51 1015.8
20260506040138 67 234 4.0 7.0 0.00 0.16 0.16 51 1015.8
20260506035635 67 253 6.0 7.0 0.00 0.16 0.16 50 1015.4
20260506035131 67 249 6.0 8.0 0.00 0.16 0.16 50 1015.4
20260506034629 67 270 5.0 6.0 0.00 0.16 0.16 50 1015.4
20260506034125 67 283 6.0 8.0 0.00 0.16 0.16 49 1015.4
20260506033623 67 182 5.0 6.0 0.00 0.16 0.16 46 1015.4
20260506033119 68 176 3.0 3.0 0.00 0.16 0.16 43 1015.4
20260506032617 68 154 2.0 2.0 0.00 0.16 0.16 42 1015.0
20260506032114 68 197 4.0 5.0 0.00 0.16 0.16 41 1014.7
20260506031611 68 149 2.0 2.0 0.00 0.16 0.16 41 1015.0
20260506031108 68 159 3.0 3.0 0.00 0.16 0.16 41 1014.7
20260506030606 68 218 4.0 5.0 0.00 0.16 0.16 40 1014.7
20260506030103 69 154 3.0 3.0 0.00 0.16 0.16 39 1014.7
20260506025600 69 166 2.0 2.0 0.00 0.16 0.16 39 1014.3
20260506025056 69 262 3.0 5.0 0.00 0.16 0.16 38 1014.3
20260506024553 69 292 4.0 5.0 0.00 0.16 0.16 38 1014.3
20260506024050 69 246 5.0 7.0 0.00 0.16 0.16 38 1014.3
20260506023545 69 174 2.0 2.0 0.00 0.16 0.16 38 1014.3
20260506023043 69 295 6.0 8.0 0.00 0.16 0.16 38 1014.3
20260506022540 70 309 7.0 9.0 0.00 0.16 0.16 38 1013.9
20260506022038 70 194 3.0 5.0 0.00 0.16 0.16 38 1013.9
20260506021535 70 276 4.0 6.0 0.00 0.16 0.16 38 1013.9
20260506021033 69 195 4.0 5.0 0.00 0.16 0.16 38 1013.9
20260506020530 70 312 6.0 8.0 0.00 0.16 0.16 39 1013.9
20260506020027 70 262 6.0 8.0 0.00 0.16 0.16 39 1013.6
20260506015525 70 302 9.0 11.0 0.00 0.16 0.16 39 1013.6
20260506015021 71 322 5.0 6.0 0.00 0.16 0.16 39 1013.2
20260506014519 71 269 7.0 8.0 0.00 0.16 0.16 39 1013.2
20260506014015 71 289 5.0 6.0 0.00 0.16 0.16 39 1013.2
20260506013513 71 301 7.0 10.0 0.00 0.16 0.16 39 1013.2
20260506013009 71 317 11.0 13.0 0.00 0.16 0.16 39 1013.2
20260506012505 71 281 7.0 10.0 0.00 0.16 0.16 39 1013.2
20260506012002 71 254 6.0 9.0 0.00 0.16 0.16 39 1013.6
20260506011500 72 302 9.0 11.0 0.00 0.16 0.16 39 1013.2
20260506010956 72 291 11.0 14.0 0.00 0.16 0.16 38 1013.2
20260506010455 73 309 5.0 7.0 0.00 0.16 0.16 37 1012.9
20260506005951 73 218 7.0 10.0 0.00 0.16 0.16 35 1012.9
20260506005449 74 276 8.0 11.0 0.00 0.16 0.16 34 1012.9
20260506004944 73 281 10.0 13.0 0.00 0.16 0.16 33 1012.9
20260506004442 74 260 7.0 10.0 0.00 0.16 0.16 33 1012.9
20260506003938 74 269 12.0 15.0 0.00 0.16 0.16 33 1012.9
20260506003435 74 308 8.0 11.0 0.00 0.16 0.16 33 1012.9
20260506002931 74 329 9.0 10.0 0.00 0.16 0.16 34 1012.9
20260506002427 74 216 8.0 11.0 0.00 0.16 0.16 34 1012.9
20260506001922 75 259 11.0 13.0 0.00 0.16 0.16 34 1012.9
20260506001420 75 180 5.0 6.0 0.00 0.16 0.16 34 1012.9
20260506000917 75 197 5.0 7.0 0.00 0.16 0.16 34 1012.4
20260506000416 75 191 6.0 7.0 0.00 0.16 0.16 35 1012.4
20260505235911 76 253 10.0 14.0 0.00 0.16 0.16 34 1012.9
20260505235409 76 302 8.0 9.0 0.00 0.16 0.16 34 1012.4
20260505234906 76 174 3.0 3.0 0.00 0.16 0.16 34 1012.4
20260505234403 75 302 7.0 8.0 0.00 0.16 0.16 35 1012.4
20260505233900 75 237 6.0 8.0 0.00 0.16 0.16 35 1012.1
20260505233358 75 256 8.0 10.0 0.00 0.16 0.16 35 1012.1
20260505232855 75 233 6.0 9.0 0.00 0.16 0.16 35 1012.4
20260505232353 75 262 9.0 11.0 0.00 0.16 0.16 35 1012.4
20260505231849 76 266 7.0 10.0 0.00 0.16 0.16 35 1012.4
20260505231347 75 308 5.0 8.0 0.00 0.16 0.16 35 1012.1
20260505230845 75 233 7.0 8.0 0.00 0.16 0.16 35 1012.4
20260505230342 75 260 9.0 13.0 0.00 0.16 0.16 35 1012.4
20260505225839 76 221 6.0 8.0 0.00 0.16 0.16 35 1012.4
20260505225337 75 212 6.0 9.0 0.00 0.16 0.16 34 1012.4
20260505224836 76 242 9.0 11.0 0.00 0.16 0.16 34 1012.4
20260505224335 75 249 8.0 9.0 0.00 0.16 0.16 34 1012.9
20260505223831 76 212 9.0 10.0 0.00 0.16 0.16 33 1012.9
20260505223329 76 271 11.0 14.0 0.00 0.16 0.16 34 1012.9
20260505222824 75 223 7.0 10.0 0.00 0.16 0.16 34 1012.9
20260505222320 75 200 5.0 8.0 0.00 0.16 0.16 36 1012.9
20260505221818 75 216 8.0 11.0 0.00 0.16 0.16 36 1012.9
20260505221314 75 211 10.0 13.0 0.00 0.16 0.16 35 1012.9
20260505220812 75 242 9.0 13.0 0.00 0.16 0.16 36 1012.9
20260505220308 73 263 11.0 15.0 0.00 0.16 0.16 37 1012.9
20260505215807 74 234 12.0 14.0 0.00 0.16 0.16 37 1013.2
20260505215305 75 280 8.0 10.0 0.00 0.16 0.16 37 1012.9
20260505214802 74 314 5.0 6.0 0.00 0.16 0.16 39 1013.2
20260505214259 75 183 8.0 11.0 0.00 0.16 0.16 38 1013.2
20260505213756 75 264 9.0 13.0 0.00 0.16 0.16 37 1013.2
20260505213254 75 261 13.0 18.0 0.00 0.16 0.16 38 1013.2
20260505212749 75 279 12.0 16.0 0.00 0.16 0.16 37 1013.2
20260505212247 75 244 9.0 13.0 0.00 0.16 0.16 37 1013.6
20260505211743 75 242 8.0 10.0 0.00 0.16 0.16 35 1013.6
20260505211241 75 225 12.0 13.0 0.00 0.16 0.16 36 1013.2
20260505210737 75 266 9.0 11.0 0.00 0.16 0.16 38 1013.6
20260505210234 75 238 8.0 10.0 0.00 0.16 0.16 38 1013.6
20260505205731 75 227 10.0 15.0 0.00 0.16 0.16 40 1013.6
20260505205230 75 246 8.0 10.0 0.00 0.16 0.16 40 1013.2
20260505204726 75 259 17.0 22.0 0.00 0.16 0.16 39 1013.9
20260505204224 74 265 14.0 17.0 0.00 0.16 0.16 40 1013.6
20260505203721 74 261 15.0 21.0 0.00 0.16 0.16 42 1013.6
20260505203218 74 225 7.0 10.0 0.00 0.16 0.16 41 1013.6
20260505202713 75 294 10.0 14.0 0.00 0.16 0.16 41 1013.6
20260505202210 75 253 11.0 15.0 0.00 0.16 0.16 42 1013.6
20260505201706 75 261 12.0 16.0 0.00 0.16 0.16 42 1013.6
20260505201204 75 238 9.0 13.0 0.00 0.16 0.16 41 1013.9
20260505200702 75 257 9.0 13.0 0.00 0.16 0.16 41 1013.6
20260505200159 74 222 8.0 13.0 0.00 0.16 0.16 43 1013.6
20260505195654 73 310 11.0 14.0 0.00 0.16 0.16 44 1013.9
20260505195152 74 255 11.0 15.0 0.00 0.16 0.16 45 1013.9
20260505194649 74 248 14.0 16.0 0.00 0.16 0.16 45 1013.9
20260505194145 74 301 7.0 8.0 0.00 0.16 0.16 46 1013.9
20260505193642 74 260 7.0 9.0 0.00 0.16 0.16 48 1013.9
20260505193139 73 297 8.0 10.0 0.00 0.16 0.16 48 1013.9
20260505192638 72 200 5.0 8.0 0.00 0.16 0.16 51 1013.9
20260505192134 73 248 11.0 13.0 0.00 0.16 0.16 51 1013.9
20260505191633 72 147 2.0 3.0 0.00 0.16 0.16 52 1014.3
20260505191131 72 217 7.0 9.0 0.00 0.16 0.16 54 1014.3
20260505190626 71 180 3.0 3.0 0.00 0.16 0.16 57 1014.3
20260505190121 72 149 1.0 2.0 0.00 0.16 0.16 55 1014.3
20260505185618 72 121 3.0 3.0 0.00 0.16 0.16 54 1014.3
20260505185114 71 142 2.0 2.0 0.00 0.16 0.16 55 1014.7
20260505184611 71 95 1.0 3.0 0.00 0.16 0.16 56 1014.7
20260505184108 72 113 3.0 3.0 0.00 0.16 0.16 55 1014.7
20260505183605 70 141 0.0 0.0 0.00 0.16 0.16 57 1014.7
20260505183103 71 151 1.0 1.0 0.00 0.16 0.16 58 1015.0
20260505182558 71 161 3.0 3.0 0.00 0.16 0.16 55 1014.7
20260505182055 71 165 4.0 5.0 0.00 0.16 0.16 58 1015.0
20260505181552 72 336 4.0 6.0 0.00 0.16 0.16 55 1015.0
20260505181049 70 146 1.0 1.0 0.00 0.16 0.16 59 1015.0
20260505180545 69 139 1.0 1.0 0.00 0.16 0.16 60 1015.0
20260505180044 68 215 4.0 6.0 0.00 0.16 0.16 62 1015.4
20260505175543 67 148 0.0 0.0 0.00 0.16 0.16 62 1015.0
20260505175041 68 230 4.0 6.0 0.00 0.16 0.16 63 1015.4
20260505174538 69 195 3.0 5.0 0.00 0.16 0.16 62 1015.4
20260505174033 69 160 2.0 2.0 0.00 0.16 0.16 62 1015.4
20260505173530 71 239 5.0 7.0 0.00 0.16 0.16 61 1015.4
20260505173027 71 136 0.0 0.0 0.00 0.16 0.16 58 1015.4
20260505172525 69 134 1.0 1.0 0.00 0.16 0.16 63 1015.4
20260505172021 69 120 0.0 0.0 0.00 0.16 0.16 62 1015.4
20260505171516 69 127 0.0 1.0 0.00 0.16 0.16 63 1015.4
20260505171013 70 99 4.0 5.0 0.00 0.16 0.16 62 1015.4
20260505170505 69 131 0.0 0.0 0.00 0.16 0.16 62 1015.4
20260505170001 68 153 1.0 1.0 0.00 0.16 0.16 65 1015.0
20260505165456 68 137 3.0 3.0 0.00 0.16 0.16 64 1015.4
20260505164952 68 142 0.0 1.0 0.00 0.16 0.16 66 1015.4
20260505164449 67 128 0.0 1.0 0.00 0.16 0.16 69 1015.4
20260505163946 66 124 2.0 2.0 0.00 0.16 0.16 68 1015.4
20260505163444 66 126 1.0 1.0 0.00 0.16 0.16 71 1015.4
20260505162943 65 124 0.0 0.0 0.00 0.16 0.16 72 1015.4
20260505162439 64 163 1.0 2.0 0.00 0.16 0.16 74 1015.4
20260505161936 64 152 0.0 0.0 0.00 0.16 0.16 74 1015.4
20260505161432 65 197 3.0 5.0 0.00 0.16 0.16 74 1015.4
20260505160930 64 146 1.0 1.0 0.00 0.16 0.16 76 1015.4
20260505160428 64 153 2.0 2.0 0.00 0.16 0.16 75 1015.8
20260505152858 64 136 0.0 0.0 0.00 0.16 0.16 73 1015.0
20260505152356 64 149 0.0 0.0 0.00 0.16 0.16 76 1015.0
20260505151855 63 153 1.0 1.0 0.00 0.16 0.16 78 1015.4
20260505151352 63 181 3.0 5.0 0.00 0.16 0.16 78 1015.4
20260505150849 62 142 0.0 0.0 0.00 0.16 0.16 78 1015.4
20260505150347 62 132 0.0 0.0 0.00 0.16 0.16 79 1015.4
20260505140317 59 133 0.0 0.0 0.00 0.16 0.16 93 1015.0
20260505130240 58 130 0.0 0.0 0.00 0.16 0.16 95 1014.3
20260505124731 57 127 0.0 0.0 0.01 0.16 0.16 95 1013.9
20260505124228 58 133 0.0 0.0 0.01 0.16 0.16 95 1013.9
20260505123723 58 132 0.0 0.0 0.01 0.16 0.16 95 1013.9
20260505123220 58 140 0.0 0.0 0.01 0.16 0.16 95 1014.3
20260505122716 58 140 0.0 0.0 0.00 0.15 0.15 95 1013.9
20260505122214 58 135 0.0 0.0 0.00 0.15 0.15 95 1013.9
20260505121710 58 132 0.0 0.0 0.00 0.15 0.15 95 1013.9
20260505121207 58 132 0.0 0.0 0.00 0.15 0.15 95 1014.3
20260505120703 58 135 0.0 0.0 0.00 0.15 0.15 95 1013.6
20260505120159 58 138 0.0 0.0 0.00 0.15 0.15 95 1013.9
20260505115652 58 132 0.0 0.0 0.01 0.15 0.15 95 1013.9
20260505115151 58 132 0.0 0.0 0.01 0.15 0.15 95 1013.9
20260505114648 58 130 0.0 0.0 0.01 0.15 0.15 94 1013.9
20260505114144 58 125 0.0 0.0 0.01 0.15 0.15 94 1013.6
20260505113640 58 138 0.0 0.0 0.01 0.15 0.15 94 1013.6
20260505113137 58 137 0.0 0.0 0.01 0.15 0.15 94 1013.6
20260505112633 58 149 0.0 1.0 0.01 0.15 0.15 94 1013.9
20260505112132 58 141 0.0 0.0 0.00 0.14 0.14 94 1014.3
20260505111631 58 138 0.0 0.0 0.00 0.14 0.14 94 1013.9
20260505111127 58 137 0.0 0.0 0.00 0.14 0.14 95 1014.3
20260505110624 58 134 0.0 0.0 0.00 0.14 0.14 95 1014.3
20260505110121 58 134 0.0 0.0 0.00 0.14 0.14 95 1014.3
20260505102056 58 112 1.0 1.0 0.01 0.13 0.13 94 1014.3
20260505101555 58 127 0.0 0.0 0.01 0.13 0.13 94 1015.0
20260505101051 58 130 0.0 0.0 0.00 0.12 0.12 94 1015.0
20260505100548 58 130 0.0 0.0 0.00 0.12 0.12 94 1015.0
20260505100045 58 119 3.0 3.0 0.00 0.12 0.12 94 1015.0
20260505095541 58 132 1.0 1.0 0.03 0.12 0.12 94 1015.4
20260505095037 58 130 1.0 1.0 0.03 0.12 0.12 94 1015.4
20260505094534 58 134 0.0 0.0 0.03 0.12 0.12 94 1015.0
20260505094030 58 133 1.0 2.0 0.03 0.12 0.12 94 1015.4
20260505093527 58 139 4.0 5.0 0.03 0.12 0.12 94 1015.4
20260505093024 58 152 5.0 8.0 0.02 0.11 0.11 94 1015.0
20260505092521 58 133 3.0 5.0 0.02 0.11 0.11 93 1015.8
20260505092020 58 130 3.0 3.0 0.01 0.10 0.10 93 1015.8
20260505091516 58 127 6.0 7.0 0.01 0.10 0.10 93 1015.8
20260505091014 58 163 5.0 6.0 0.00 0.09 0.09 94 1015.8
20260505090512 59 124 7.0 8.0 0.00 0.09 0.09 93 1015.8
20260505090010 59 136 3.0 3.0 0.02 0.09 0.09 94 1015.8
20260505085508 58 119 4.0 6.0 0.02 0.09 0.09 94 1016.1
20260505085005 58 128 4.0 5.0 0.02 0.09 0.09 94 1016.1
20260505084504 58 111 5.0 7.0 0.01 0.08 0.08 93 1016.5
20260505084001 58 143 3.0 3.0 0.01 0.08 0.08 94 1016.5
20260505083458 58 132 5.0 6.0 0.01 0.08 0.08 93 1016.5
20260505082954 58 120 3.0 6.0 0.01 0.08 0.08 94 1016.8
20260505082450 58 131 3.0 3.0 0.01 0.08 0.08 94 1016.8
20260505081947 58 118 3.0 5.0 0.01 0.08 0.08 94 1017.2
20260505081444 58 121 2.0 3.0 0.01 0.08 0.08 94 1017.2
20260505080940 58 133 5.0 7.0 0.01 0.08 0.08 94 1017.2
20260505080436 58 131 1.0 2.0 0.00 0.07 0.07 94 1017.6
20260505075932 58 128 3.0 3.0 0.07 0.07 0.07 94 1017.6
20260505075429 59 132 1.0 2.0 0.07 0.07 0.07 94 1017.9
20260505074926 59 114 3.0 5.0 0.06 0.06 0.06 94 1017.9
20260505074424 59 127 0.0 0.0 0.05 0.05 0.05 94 1017.9
20260505073921 59 130 0.0 0.0 0.04 0.04 0.04 94 1017.9
20260505073418 59 135 0.0 0.0 0.04 0.04 0.04 94 1017.9
20260505072915 59 126 0.0 0.0 0.03 0.03 0.03 94 1017.9
20260505072411 59 134 0.0 0.0 0.03 0.03 0.03 94 1017.9
20260505071908 59 135 0.0 0.0 0.02 0.02 0.02 94 1017.9
20260505071404 59 129 0.0 0.0 0.01 0.01 0.01 94 1017.6
20260505070902 59 133 2.0 2.0 0.01 0.01 0.01 93 1017.6
20260505070358 59 133 1.0 1.0 0.00 0.00 0.00 93 1017.9
20260505065854 59 129 0.0 1.0 0.08 0.26 0.26 93 1017.6
20260505065351 59 133 0.0 0.0 0.08 0.26 0.26 93 1017.6
20260505064848 59 134 0.0 0.0 0.07 0.25 0.25 93 1017.6
20260505064345 59 134 0.0 0.0 0.07 0.25 0.25 93 1017.9
20260505063843 59 136 0.0 0.0 0.06 0.24 0.24 93 1017.6
20260505063339 59 135 0.0 0.0 0.06 0.24 0.24 93 1017.6
20260505062835 59 135 0.0 0.0 0.05 0.23 0.23 92 1017.6
20260505062333 59 137 0.0 0.0 0.05 0.23 0.23 92 1017.6
20260505061830 59 136 1.0 1.0 0.04 0.22 0.22 92 1017.6
20260505061328 59 130 2.0 2.0 0.03 0.21 0.21 91 1017.6
20260505060825 60 137 2.0 2.0 0.02 0.20 0.20 91 1017.6
20260505060322 60 121 2.0 3.0 0.01 0.19 0.19 89 1017.6
20260505055817 60 126 1.0 1.0 0.04 0.18 0.18 87 1017.6
20260505055314 60 132 0.0 1.0 0.02 0.16 0.16 88 1017.2
20260505054811 60 124 1.0 2.0 0.02 0.16 0.16 87 1017.2
20260505054308 60 113 4.0 5.0 0.02 0.16 0.16 88 1017.2
20260505053807 60 128 1.0 2.0 0.02 0.16 0.16 88 1017.2
20260505053303 60 135 1.0 1.0 0.02 0.16 0.16 88 1017.2
20260505052800 60 135 2.0 2.0 0.02 0.16 0.16 88 1017.2
20260505052257 60 137 1.0 2.0 0.01 0.15 0.15 88 1017.2
20260505051754 60 139 2.0 2.0 0.01 0.15 0.15 87 1017.2
20260505051252 60 140 0.0 0.0 0.01 0.15 0.15 87 1017.6
20260505050749 60 139 0.0 0.0 0.00 0.14 0.14 88 1017.6
20260505050248 60 144 0.0 0.0 0.00 0.14 0.14 87 1017.6